Sussex, NJ

11:46 PM EST on December 14, 2017 (GMT -0500)
Sussex

Weather History for KFWN - November, 2012

Change the Weather History Date:

Friday, November 9, 2012

  Actual Average Record
Temperature  
Mean Temperature 42 °F -  
Max Temperature 52 °F 52 °F 72 °F (1975)
Min Temperature 32 °F 31 °F 15 °F (1992)
Degree Days  
Heating Degree Days 23    
Moisture  
Dew Point 26 °F    
Average Humidity 58    
Maximum Humidity 88    
Minimum Humidity 32    
Precipitation  
Precipitation 0.00 in - - ()
Sea Level Pressure  
Sea Level Pressure 30.09 in    
Wind  
Wind Speed 4 mph (NW)    
Max Wind Speed 15 mph    
Max Gust Speed 22 mph    
Visibility 10 miles    
Events      
Averages and records for this station are not official NWS values.
T = Trace of Precipitation, MM = Missing Value Source: NWS Daily Summary

Daily Weather History Graph

Daily Weather History Graph

Search for Another Location

Airport or City:

Trip Planner

Search our weather history database for the weather conditions in past years. The results will help you decide how hot, cold, wet, or windy it might be!

Date:

Astronomy

Nov. 09, 2012 Rise Set
Actual Time 6:39 AM EST 4:44 PM EST
Civil Twilight 6:10 AM EST 5:13 PM EST
Nautical Twilight 5:37 AM EST 5:46 PM EST
Astronomical Twilight 5:05 AM EST 6:18 PM EST
Moon 1:33 AM EST (11/9) 1:58 PM EST (11/9)
Length of Visible Light 11h 03m
Length of Day
10h 04m
Waning Crescent, 23% of the Moon is Illuminated
Nov 9
Waning Crescent
Nov 13
New
Nov 20
First Quarter
Nov 28
Full
Dec 6
Last Quarter

Hourly Weather History & Observations

Time (EST) Temp. Windchill Dew Point Humidity Pressure Visibility Wind Dir Wind Speed Gust Speed Precip Events Conditions
12:53 AM 35.1 °F 32.2 °F 21.9 °F 59% 29.96 in 10.0 mi NW 3.5 mph - N/A   Clear
1:53 AM 34.0 °F 29.8 °F 21.9 °F 61% 29.98 in 10.0 mi Variable 4.6 mph - N/A   Clear
2:53 AM 34.0 °F 29.8 °F 21.9 °F 61% 29.99 in 10.0 mi Variable 4.6 mph - N/A   Clear
3:53 AM 33.1 °F 28.7 °F 21.0 °F 61% 29.99 in 10.0 mi Variable 4.6 mph - N/A   Clear
4:53 AM 34.0 °F - 21.0 °F 59% 30.01 in 10.0 mi Calm Calm - N/A   Clear
5:53 AM 35.1 °F - 21.9 °F 59% 30.02 in 10.0 mi Calm Calm - N/A   Clear
6:53 AM 35.1 °F - 24.1 °F 64% 30.05 in 10.0 mi Calm Calm - N/A   Clear
7:53 AM 39.0 °F - 25.0 °F 57% 30.07 in 10.0 mi Calm Calm - N/A   Clear
8:53 AM 41.0 °F 36.4 °F 26.1 °F 55% 30.08 in 10.0 mi Variable 6.9 mph - N/A   Clear
9:53 AM 45.0 °F 41.8 °F 26.1 °F 48% 30.09 in 10.0 mi Variable 5.8 mph - N/A   Clear
10:53 AM 48.9 °F - 24.1 °F 38% 30.10 in 10.0 mi NNW 15.0 mph 21.9 mph N/A   Clear
11:53 AM 51.1 °F - 21.9 °F 32% 30.10 in 10.0 mi NNW 8.1 mph 18.4 mph N/A   Partly Cloudy
12:53 PM 52.0 °F - 24.1 °F 34% 30.08 in 10.0 mi WNW 13.8 mph 18.4 mph N/A   Mostly Cloudy
1:53 PM 52.0 °F - 25.0 °F 35% 30.09 in 10.0 mi WNW 11.5 mph 18.4 mph N/A   Overcast
2:53 PM 51.1 °F - 28.0 °F 41% 30.09 in 10.0 mi WNW 8.1 mph 16.1 mph N/A   Overcast
3:53 PM 50.0 °F - 28.9 °F 44% 30.09 in 10.0 mi Variable 5.8 mph - N/A   Overcast
4:53 PM 48.0 °F - 30.0 °F 50% 30.12 in 10.0 mi WNW 4.6 mph - N/A   Partly Cloudy
5:53 PM 46.0 °F 44.8 °F 30.9 °F 56% 30.16 in 10.0 mi NNW 3.5 mph - N/A   Clear
6:53 PM 44.1 °F - 32.0 °F 63% 30.17 in 10.0 mi Calm Calm - N/A   Clear
7:53 PM 39.9 °F - 30.9 °F 70% 30.18 in 10.0 mi Calm Calm - N/A   Clear
8:53 PM 36.0 °F 33.3 °F 30.9 °F 82% 30.18 in 10.0 mi WSW 3.5 mph - N/A   Clear
9:53 PM 35.1 °F - 30.9 °F 85% 30.20 in 10.0 mi Calm Calm - N/A   Clear
10:53 PM 32.0 °F - 28.9 °F 88% 30.21 in 8.0 mi Calm Calm - N/A   Clear
11:53 PM 32.0 °F - 28.9 °F 88% 30.21 in 8.0 mi Calm Calm - N/A   Clear